1998-067WW

Last updated on Thu Sep 05 2024 00:02:08 GMT+0000 (Coordinated Universal Time)

1 60956U 98067WW 24247.60242771 .00154113 00000+0 25374-2 0 9991 2 60956 51.6399 286.8228 0013445 320.6243 39.3988 15.51195344 800
UTC large
Height (km)
Speed (km/s)
/
Latitude / Longitude
Inclination (degrees)
Orbital Period (minutes)
Azimuth
Elevation
Range (km)
Doppler Factor

Next 0 passes for location: London (51.5072 / 0.1276)

Sorry there are no passes over London.